Terug naar catalogus

SL-8 R/B

ActiefLEO
NORAD 14402·ROCKET BODY·🇷🇺 Russia

Gelanceerd Oct 12, 1983 vanaf Plesetsk Cosmodrome

Loading…

Volgende Passages (komende 24 uur)

TLE

VersSource: Space-Track

Epoch: Sep 14, 2026, 17:59 UTC

1 14402U 83103B   26257.74981256  .00000123  00000-0  49757-4 0  9992
2 14402  74.0457 174.9360 0027599 264.7209  95.0795 14.37433487246801

Volg SL-8 R/B in realtime met AllMySat

Download on the App Store